Simultaneous Nadir Overpasses (SNOs) Predictions

Prediction of SNOs between GOES-15 and TERRA Satellite Orbit:

Table of predicted SNOs for the next 14.0 days since TLE Epoch: 12/23/2017
Index Date Time (GOES-15) GOES-15 Lat,Lon TERRA Lat,Lon Distance(km) Time Diff (sec)
1 12/23/2017 07:43:05 0.05,-135.38 -0.44,-137.76 270.50 80
2 12/25/2017 07:28:14 0.05,-135.35 0.18,-134.80 62.38 80
3 12/27/2017 07:16:03 0.05,-135.31 0.81,-131.84 394.63 80
4 12/27/2017 19:39:58 -0.04,-135.23 0.33,-136.99 200.01 80
5 12/29/2017 19:25:07 -0.05,-135.19 -0.31,-134.04 131.30 80
6 12/30/2017 07:49:11 0.04,-135.25 -0.80,-139.23 452.42 80
7 12/31/2017 19:15:35 -0.05,-135.13 -0.89,-131.07 461.73 80
8 01/01/2018 07:37:00 0.04,-135.19 -0.16,-136.27 122.30 80
9 01/03/2018 07:22:08 0.04,-135.13 0.43,-133.31 207.33 80
10 01/03/2018 19:46:03 -0.03,-135.04 0.71,-138.45 388.44 80
11 01/05/2018 19:31:12 -0.03,-134.98 0.06,-135.50 59.13 80




NCC Satellite Simultaneous Nadir Overpasses (SNOs) Prediction Service
